Location: The Cape
(41.7476°N, 74.4332°W)
Time: 05:59:39
(UTC+00:00)

Daily predictions for brighter satellites

Satellite Brightness Start Highest point End
(mag) Time Altitude Azimuth Time Altitude Azimuth Time Altitude Azimuth
STARLINK-1171 3.7 00:49:43 10° NW 00:53:52 85° SW 00:58:01 10° SE
Okean 1 3.7 00:50:32 10° SSE 00:54:24 45° E 00:58:17 10° NNE
Meteor 1-4 Rocket 3.9 00:54:31 10° SE 00:57:06 20° E 00:59:43 10° NE
STARLINK-1218 3.6 00:53:17 10° SW 00:57:25 78° SE 01:01:34 10° NE
SPOT 3 Rocket 3.6 00:53:42 10° SSE 00:58:47 66° ENE 01:03:54 10° N
STARLINK-1155 3.7 00:54:41 10° NW 00:58:49 78° SW 01:02:57 10° SE
USA 186 3.1 00:57:44 10° SSW 00:59:54 29° W 01:02:13 10° NNW
USA 229 DEB 3.9 00:55:37 10° SW 01:02:06 79° NW 01:08:58 10° NNE
USA 229 3.8 00:55:44 10° SW 01:02:13 79° NW 01:09:04 10° NNE
ISS -1.1 01:00:02 10° NNW 01:02:14 16° N 01:04:26 10° NE
STARLINK-1254 3.6 00:58:15 10° SW 01:02:24 85° SE 01:06:33 10° NE
STARLINK-1166 3.8 00:59:39 10° NW 01:03:47 71° SW 01:07:54 10° SE
Cosmos 1624 Rocket 4.3 00:59:28 10° S 01:04:33 49° ESE 01:09:41 10° NNE
Cosmos 614 Rocket 4.0 00:59:33 10° NNW 01:04:38 65° ENE 01:09:41 10° SSE
Cosmos 2278 Rocket 2.9 01:01:10 10° SSE 01:06:07 32° ESE 01:11:06 10° NE
Resurs 01 Rocket 2.1 01:01:55 10° SE 01:06:09 45° ENE 01:10:25 10° N
Cosmos 44 Rocket 3.6 01:01:26 10° NW 01:06:17 66° WSW 01:11:13 10° SSE
Cosmos 1140 Rocket 4.2 01:01:43 10° N 01:06:37 40° ENE 01:11:28 10° SE
STARLINK-1087 1.8 01:05:22 10° WNW 01:07:19 64° SW 01:08:54 13° SE
STARLINK-1231 3.6 01:03:14 10° SW 01:07:23 88° NNW 01:11:32 10° NE
Cosmos 1782 Rocket 4.1 01:04:20 10° N 01:08:37 43° ENE 01:12:52 10° SSE
STARLINK-1165 3.8 01:04:39 10° WNW 01:08:45 65° SW 01:12:43 11° SE
NOSS 3-1 (C) 3.9 01:03:41 10° SW 01:09:03 63° NW 01:15:17 10° NNE
H-2A R/B 3.5 01:05:32 10° SSW 01:10:05 35° W 01:14:47 10° NNW
Cosmos 1844 Rocket 3.8 01:05:15 10° SW 01:10:43 50° WNW 01:16:14 10° NNE
NOSS 3-1 (A) 3.2 01:05:57 10° SSW 01:11:19 85° ESE 01:17:34 10° NE
STARLINK-1232 3.7 01:08:13 10° SW 01:12:22 81° NW 01:16:31 10° NE
Cosmos 1703 Rocket 3.5 01:08:41 10° S 01:12:59 75° E 01:17:19 10° NNE
STARLINK-1169 4.0 01:09:38 10° WNW 01:13:43 59° SW 01:17:30 12° SE
CREW DRAGON DEMO-1 DEB 2.8 01:12:30 10° NW 01:15:36 85° NE 01:18:11 14° SE
STARLINK-1208 3.9 01:13:12 10° WSW 01:17:20 75° NW 01:21:30 10° NE
Meteor 1-19 Rocket 4.3 01:13:12 10° S 01:18:39 61° E 01:24:20 10° NNE
STARLINK-1178 4.1 01:14:39 10° WNW 01:18:42 53° SW 01:22:18 13° SSE
Cosmos 1371 Rocket 4.0 01:13:55 10° SSW 01:19:09 76° ESE 01:24:23 10° NNE
Cosmos 2034 Rocket 4.1 01:13:40 10° N 01:19:52 79° W 01:26:00 10° S
NOSS 2-3 (C) 3.6 01:17:53 10° SW 01:22:06 87° NW 01:26:59 10° NE
SJ-6B 4.3 01:18:47 10° SSW 01:22:12 34° W 01:25:37 10° NNW
STARLINK-1271 4.0 01:18:11 10° WSW 01:22:18 69° NW 01:26:27 10° NE
Okean 2 Rocket 4.4 01:19:48 10° NNE 01:23:29 25° ENE 01:26:18 14° ESE
STARLINK-1120 4.2 01:19:39 10° WNW 01:23:39 48° SW 01:27:05 13° SSE
Cosmos 1544 3.4 01:20:39 10° N 01:24:10 47° E 01:27:02 14° SSE
STARLINK-1230 4.4 01:21:15 10° SSW 01:24:49 28° SE 01:28:24 10° ENE
Terra 4.0 01:23:57 10° E 01:25:44 12° ENE 01:27:29 10° NE
STARLINK-1070 4.4 01:21:56 10° NW 01:25:56 45° NNE 01:29:33 12° ESE
Cosmos 389 Rocket 3.3 01:23:18 10° SSW 01:26:39 51° WNW 01:30:05 10° N
Cosmos 1908 Rocket 4.0 01:22:52 10° NNW 01:27:16 64° W 01:31:40 10° S
STARLINK-1154 4.1 01:23:12 10° WSW 01:27:18 63° NW 01:31:25 10° NE
STARLINK-1131 4.4 01:24:39 10° WNW 01:28:36 44° SW 01:31:51 14° SSE
STARLINK-1243 4.3 01:26:05 10° SSW 01:29:45 31° SE 01:33:26 10° ENE
Hubble Space Telescope 2.8 01:28:30 10° SSW 01:30:14 12° S 01:31:25 11° SSE
STARLINK-1069 4.3 01:26:54 10° NW 01:30:55 48° NNE 01:34:20 14° ESE
Meteor 1-18 Rocket 4.3 01:26:12 10° S 01:31:45 87° W 01:37:26 10° N
STARLINK-1197 4.3 01:28:12 10° WSW 01:32:16 58° NNW 01:36:23 10° NE
BREEZE M DEB (TANK) 3.5 01:24:03 10° SW 01:33:26 56° SSE 01:36:32 10° ENE
Lacrosse 5 3.4 01:29:26 10° NNW 01:33:48 28° NNE 01:38:10 10° E
STARLINK-1236 4.2 01:30:58 10° SSW 01:34:43 34° SE 01:38:30 10° ENE
Spot 2 Rocket 3.9 01:31:06 15° SE 01:35:03 46° ENE 01:39:51 10° N
STARLINK-1085 4.2 01:31:53 10° NW 01:35:57 52° NNE 01:39:08 15° ESE
Iridium 51 4.2 01:32:18 10° S 01:36:25 73° E 01:40:12 10° N
Cosmos 1356 3.5 01:33:00 10° NNW 01:36:28 79° W 01:39:27 13° S
STARLINK-1198 4.5 01:33:14 10° WSW 01:37:18 54° NNW 01:41:22 10° NE
Cosmos 371 Rocket 4.1 01:34:23 13° SSE 01:37:56 31° E 01:42:11 10° NE
STARLINK-1086 4.0 01:36:50 10° NW 01:40:55 56° NNE 01:43:54 17° ESE
Resurs 1-3 4.5 01:38:22 10° S 01:42:36 48° W 01:46:51 10° NNW
Cosmos 676 Rocket 4.2 01:38:17 10° NNW 01:43:28 57° ENE 01:47:09 19° SE
Cosmos 1023 Rocket 4.5 01:38:30 10° NNW 01:43:45 88° ENE 01:47:56 16° SSE
MetOp-B 4.2 01:39:50 15° SSE 01:44:19 70° ENE 01:49:39 10° N
STARLINK-1269 3.9 01:40:42 10° SSW 01:44:36 42° SE 01:48:31 10° ENE
STARLINK-1095 3.9 01:41:49 10° NW 01:45:55 61° NE 01:48:42 20° ESE
COSMOS 2406 3.2 01:40:10 10° NNW 01:45:58 78° ENE 01:50:17 18° SSE
Meteor 2-4 Rocket 3.6 01:42:03 10° S 01:47:23 66° E 01:52:41 10° NNE
Cosmos 2056 Rocket 3.7 01:42:28 10° SSW 01:47:34 71° WNW 01:52:40 10° NNE
Cosmos 1743 4.2 01:44:12 10° NNW 01:47:42 35° W 01:51:10 10° SSW
STARLINK-1200 3.8 01:45:38 10° SSW 01:49:35 46° SE 01:53:34 10° ENE
IGS 5A 3.8 01:47:13 21° SE 01:49:41 48° ENE 01:53:41 10° N
STARLINK-1077 3.8 01:46:46 10° NW 01:50:54 66° NE 01:53:29 22° ESE
STARLINK-1192 3.7 01:50:33 10° SSW 01:54:33 51° SE 01:58:35 10° ENE
Okean 3 3.4 01:51:40 14° S 01:55:18 71° E 01:59:37 10° NNE
Meteor 1-13 Rocket 4.4 01:51:21 16° SSE 01:55:38 51° E 02:01:07 10° NNE
STARLINK-1075 3.7 01:51:45 10° NW 01:55:54 72° NE 01:58:15 24° ESE
GPS 2-04 Rocket1 4.1 01:53:55 10° SSW 01:55:48 19° S 01:55:48 19° S
STARLINK-1244 3.6 01:55:28 10° SW 01:59:31 56° SE 02:03:34 10° ENE
Cosmos 1634 Rocket 4.0 01:53:29 10° N 01:59:50 87° W 02:05:16 15° S
STARLINK-1093 3.6 01:56:43 10° NW 02:00:52 78° NE 02:03:03 27° ESE
Cosmos 1461 4.2 02:04:40 22° ESE 02:04:40 22° ESE 02:07:33 10° ENE
STARLINK-1138 3.5 02:00:23 10° SW 02:04:27 62° SE 02:08:33 10° ENE
H-2A R/B 4.2 02:03:25 10° S 02:03:58 10° S 02:03:58 10° S
STARLINK-1074 3.6 02:01:41 10° NW 02:05:51 85° NE 02:07:49 30° SE
GENESIS II 4.2 02:02:04 10° NNW 02:06:06 78° ENE 02:07:49 32° SE
STARLINK-1143 3.5 02:05:19 10° SW 02:09:25 68° SE 02:13:32 10° ENE
SPOT 5 3.6 02:07:41 25° SE 02:10:17 44° ENE 02:15:18 10° N
ERBS 3.0 02:09:06 10° WSW 02:12:20 53° NW 02:15:35 10° NE
STARLINK-1203 3.5 02:09:32 10° SW 02:13:43 76° SE 02:17:56 10° NE
STARLINK-1241 3.5 02:10:17 10° SW 02:14:24 75° SE 02:18:32 10° NE
Cosmos 1300 Rocket 3.5 02:10:59 10° N 02:15:27 79° E 02:17:36 30° SSE
STARLINK-1088 3.5 02:11:39 10° NW 02:15:48 81° SW 02:17:23 37° SE
Landsat 7 3.8 02:15:16 25° S 02:18:03 82° WSW 02:22:50 10° NNW
Cosmos 1452 Rocket 3.4 02:13:28 12° SSW 02:18:17 77° ESE 02:23:35 10° NNE
Cosmos 2082 Rocket 2.5 02:13:06 10° NNW 02:18:44 56° ENE 02:21:36 28° SE
STARLINK-1239 3.5 02:15:14 10° SW 02:19:22 82° SE 02:23:31 10° NE
STARLINK-1115 3.6 02:16:38 10° NW 02:20:46 74° SW 02:22:10 40° SE
Cosmos 304 Rocket 4.3 02:20:05 32° SE 02:21:15 37° ESE 02:25:39 10° NE
Cosmos 1833 Rocket 2.6 02:16:57 10° NNW 02:22:36 85° WSW 02:25:34 29° SSE
Cosmos 1420 Rocket 4.3 02:17:39 10° SSW 02:22:50 68° WNW 02:28:01 10° NNE
STARLINK-1240 3.5 02:20:13 10° SW 02:24:21 89° SE 02:28:31 10° NE
STARLINK-1076 3.6 02:21:37 10° WNW 02:25:44 67° SW 02:26:56 43° SSE
CZ-4B DEB 4.3 02:28:01 52° S 02:28:44 82° WSW 02:32:06 10° NNW
Abrixas rocket 4.4 02:26:55 10° NW 02:29:17 21° N 02:31:37 10° NE
STARLINK-1216 3.6 02:25:11 10° SW 02:29:19 84° NW 02:33:28 10° NE
Cosmos 1674 Rocket 3.5 02:28:03 37° SSE 02:29:38 67° E 02:33:59 10° NNE
STARLINK-1092 3.7 02:26:35 10° WNW 02:30:40 61° SW 02:31:42 45° SSE
Cosmos 2369 Rocket 4.1 02:31:29 13° E 02:31:29 13° E 02:33:34 10° ENE
Cosmos 332 Rocket 3.7 02:28:28 24° S 02:31:28 77° ESE 02:36:23 10° NNE
Cosmos 1943 Rocket 3.6 02:33:19 20° E 02:33:19 20° E 02:37:04 10° NE
STARLINK-1237 3.7 02:30:10 10° WSW 02:34:18 77° NW 02:38:27 10° NE
USA 245 4.1 02:33:13 26° SSW 02:34:32 36° WSW 02:37:25 10° NNW
Cosmos 1378 Rocket 3.6 02:34:29 43° SSE 02:35:38 58° E 02:39:59 10° NNE
STARLINK-1080 3.9 02:31:38 10° WNW 02:35:41 55° SW 02:36:32 45° S
Cosmos 1066 Rocket 4.1 02:36:48 34° SSE 02:39:01 62° E 02:44:20 10° NNE
STARLINK-1202 3.8 02:35:10 10° WSW 02:39:17 71° NW 02:43:26 10° NE
ISS -2.6 02:36:32 10° NW 02:39:43 38° NNE 02:40:32 32° ENE
Cosmos 1437 Rocket 2.6 02:39:15 44° SSW 02:40:23 80° W 02:44:11 10° N
STARLINK-1090 3.9 02:36:36 10° WNW 02:40:37 50° SW 02:41:17 45° S
Resurs 01 Rocket 4.1 02:39:58 10° SW 02:42:51 17° W 02:45:45 10° NW
STARLINK-1125 4.5 02:38:54 10° NW 02:42:53 44° NNE 02:44:29 29° E
EXPRESS MD2 3.4 02:40:18 10° SW 02:43:30 86° SE 02:49:46 10° ENE
ATLAS 3B CENTAUR R/B 4.0 02:36:31 10° SW 02:43:50 22° S 02:43:50 22° S
SPOT 1/Viking Rocket 4.0 02:42:36 27° SSW 02:45:15 56° W 02:50:20 10° NNW
STARLINK-1089 4.1 02:41:37 10° WNW 02:45:34 45° SW 02:46:03 43° SSW
STARLINK-1109 4.4 02:43:52 10° NW 02:47:53 47° NNE 02:49:16 33° E
Cosmos 1975 Rocket 4.3 02:48:57 27° E 02:48:57 27° E 02:52:36 10° NNE
STARLINK-1246 4.1 02:45:10 10° WSW 02:49:15 60° NW 02:53:22 10° NE
Cosmos 2278 Rocket 3.6 02:44:51 10° SW 02:50:05 37° WNW 02:55:21 10° N
STARLINK-1107 4.2 02:46:38 10° WNW 02:50:32 41° SW 02:50:50 40° SSW
Meteor 1-15 Rocket 4.3 02:45:27 10° N 02:51:25 81° E 02:53:45 39° SSE
SL-4 R/B 1.8 02:48:43 10° NW 02:51:20 52° WNW 02:51:20 52° WNW
STARLINK-1091 4.2 02:48:49 10° NW 02:52:52 50° NNE 02:54:02 38° E
Cosmos 1741 Rocket 3.9 02:48:49 10° NNW 02:54:04 87° ENE 02:55:39 46° SSE
Cosmos 972 Rocket 4.4 02:51:11 31° S 02:54:14 77° ESE 03:00:54 10° NNE
STARLINK-1224 4.3 02:50:11 10° WSW 02:54:15 55° NNW 02:58:20 10° NE
STARLINK-1066 4.4 02:51:41 10° WNW 02:55:31 37° SW 02:55:39 37° SW
STARLINK-1072 4.1 02:53:47 10° NW 02:57:52 55° NNE 02:58:48 43° E
Crew Dragon 3.2 02:56:55 10° NW 02:57:36 17° NNW 02:57:36 17° NNW
STARLINK-1225 4.4 02:55:12 10° WSW 02:59:14 51° NNW 03:03:17 10° NE
SeaSat 1 2.7 02:55:52 10° NE 03:00:36 44° ESE 03:00:45 44° ESE
ERS-1 Rocket 3.5 03:00:13 33° SSW 03:02:08 52° W 03:07:03 10° NNW
Terra 1.8 03:01:35 51° S 03:02:46 82° WSW 03:07:34 10° NNW
STARLINK-1096 4.0 02:58:46 10° NW 03:02:52 59° NNE 03:03:36 50° ENE
Cosmos 2026 Rocket 4.5 03:01:47 37° SE 03:03:21 44° E 03:09:17 10° NNE
BREEZE-M DEB (TANK) 4.2 02:44:23 10° WSW 03:04:26 79° NNW 03:08:59 10° ENE
MTI 4.3 03:01:58 10° N 03:04:34 56° N 03:04:34 56° N
Cosmos 1766 3.7 03:01:59 10° N 03:05:44 47° ENE 03:05:44 47° ENE
NOSS 2-2 (E) 3.4 03:07:04 57° NE 03:07:04 57° NE 03:10:18 10° NE
Cosmos 1850 Rocket 4.1 03:01:23 10° NNW 03:06:43 70° WSW 03:08:14 46° S
STARLINK-1079 3.8 03:03:44 10° NW 03:07:52 64° NE 03:08:24 57° ENE
Cosmos 1110 Rocket 3.9 03:09:30 45° SSW 03:11:10 88° ESE 03:16:22 10° NNE
Cosmos 1733 4.0 03:08:13 10° N 03:11:27 40° ENE 03:11:27 40° ENE
STARLINK-1116 3.6 03:08:42 10° NW 03:12:50 70° NE 03:13:10 66° ENE
Okean 1 Rocket 3.2 03:09:02 10° NNW 03:13:29 69° W 03:14:11 58° SSW
Lacrosse 5 1.8 03:12:07 10° NW 03:17:09 68° SW 03:17:49 60° S
Nadezhda 4 Rocket 4.2 03:14:13 30° SSW 03:17:24 67° W 03:23:31 10° N
STARLINK-1094 3.5 03:18:40 10° NW 03:22:45 82° NNE 03:22:45 82° NNE
Cosmos 1455 Rocket 3.7 03:19:56 10° N 03:23:58 41° ENE 03:23:58 41° ENE
STARLINK-1117 3.6 03:23:38 10° NW 03:27:31 78° NW 03:27:31 78° NW
NOSS 2-2 (C) 3.6 03:30:27 57° NNE 03:30:27 57° NNE 03:33:38 10° NNE
ATLAS 2AS CENTAUR R/B 3.8 03:30:08 32° ESE 03:30:41 32° ESE 03:37:29 10° NE
Aureole 2 Rocket 4.0 03:32:21 29° WNW 03:32:21 29° WNW 03:34:55 10° N
Cosmos 1331 Rocket 4.2 03:31:02 42° SW 03:32:43 67° WNW 03:37:52 10° NNE
STARLINK-1078 3.7 03:28:37 10° NW 03:32:19 69° WNW 03:32:19 69° WNW
STARLINK-1108 3.9 03:33:36 10° NW 03:37:05 60° WNW 03:37:05 60° WNW
Cosmos 1302 Rocket 3.9 03:38:22 68° SE 03:38:49 73° ESE 03:44:07 10° NNE
Cosmos 1378 4.2 03:38:55 40° WNW 03:38:55 40° WNW 03:42:25 10° N
NOSS 3-2 (A) 4.4 03:31:47 10° NNW 03:39:15 59° NE 03:43:28 30° ESE
SL-27 R/B 4.2 03:37:41 10° N 03:40:12 28° NE 03:40:12 28° NE
STARLINK-1071 4.2 03:38:35 10° WNW 03:41:52 52° WNW 03:41:52 52° WNW
Cosmos 1461 4.3 03:40:57 21° WSW 03:43:05 36° NW 03:47:06 10° NNE
EO 1 Del DPAF 3.7 03:40:54 10° NNE 03:43:55 56° NNE 03:43:55 56° NNE
STARLINK-1110 4.3 03:42:39 10° WNW 03:45:46 46° W 03:45:46 46° W
Cosmos 1470 3.9 03:44:02 10° N 03:46:57 37° NE 03:46:57 37° NE
USA 238 DEB 4.1 03:40:48 10° NNW 03:47:58 63° NE 03:51:04 36° ESE
USA 238 4.1 03:40:54 10° NNW 03:48:04 62° NE 03:51:13 36° ESE
Cosmos 1805 4.5 03:49:23 10° NNW 03:52:39 35° W 03:52:39 35° W
ALOS 2 3.6 03:53:11 37° ENE 03:53:11 37° ENE 03:57:08 10° N
Meteor 1-22 Rocket 4.4 03:48:00 10° NNW 03:53:53 66° W 03:54:59 54° SW
Meteor 2-13 Rocket 4.4 03:57:47 54° SSW 03:59:16 79° W 04:05:28 10° N
Cosmos 1544 Rocket 3.7 03:55:52 10° N 03:59:43 66° NNE 03:59:43 66° NNE
Cosmos 2082 Rocket 3.9 03:58:11 10° NW 04:02:21 21° W 04:03:27 20° WSW
Cosmos 1842 4.2 04:04:44 44° NW 04:04:44 44° NW 04:08:03 10° N
STARLINK-1119 4.5 04:00:51 10° NW 04:04:51 46° NNE 04:04:55 46° NNE
Thor Agena Rocket 3.9 04:00:41 10° N 04:05:54 59° WNW 04:07:01 48° WSW
SL-8 R/B 4.2 04:03:04 10° WNW 04:07:50 58° NNE 04:08:51 47° ENE
Cosmos 1992 Rocket 4.4 04:08:52 49° E 04:08:52 49° E 04:13:27 10° NNE
STARLINK-1114 4.4 04:05:49 10° NW 04:09:42 49° NNE 04:09:42 49° NNE
Cosmos 1726 4.0 04:06:56 10° NNE 04:09:11 24° NE 04:09:11 24° NE
ATLAS CENTAUR R/B 3.8 04:13:51 14° ENE 04:13:51 14° ENE 04:14:44 10° ENE
Aureole 3 Rocket 4.1 04:07:15 10° N 04:13:06 85° W 04:14:58 54° S
Cosmos 2369 Rocket 2.2 04:13:14 65° SW 04:14:06 81° WNW 04:19:48 10° NNE
STARLINK-1130 (DARKSAT) 4.3 04:10:48 10° NW 04:14:31 51° NNE 04:14:31 51° NNE
Meteor 2-8 Rocket 4.5 04:08:56 10° N 04:15:03 66° E 04:16:00 58° SE
Cosmos 1943 Rocket 2.6 04:14:47 41° WSW 04:16:22 56° WNW 04:21:52 10° NNE
STARLINK-1084 4.3 04:15:44 10° NW 04:19:17 52° N 04:19:17 52° N
FALCON 9 R/B 4.3 04:25:00 21° ESE 04:25:00 21° ESE 04:29:40 10° E
STARLINK-1098 4.4 04:20:43 10° NW 04:24:03 50° NNW 04:24:03 50° NNW
Cosmos 1242 Rocket 4.1 04:27:39 33° NW 04:27:39 33° NW 04:30:12 10° N
Cosmos 2292 Rocket 4.5 04:28:07 39° NE 04:28:07 39° NE 04:30:40 10° NNE
USA 215 3.2 04:25:16 48° SE 04:27:21 87° NE 04:33:56 10° NW
STARLINK-1123 4.5 04:25:41 10° NW 04:28:50 48° NNW 04:28:50 48° NNW
BREEZE-M DEB (TANK) 3.4 04:21:05 10° WNW 04:30:25 78° NNE 04:30:37 75° ENE
S3M 3.8 04:26:11 10° N 04:32:22 90° WNW 04:33:15 68° S
Cosmos 292 Rocket 4.1 04:34:42 57° WNW 04:34:51 57° WNW 04:39:39 10° NNE
Cosmos 1655 Rocket 3.9 04:35:13 64° SSW 04:36:12 81° W 04:42:29 10° N
SeaSat 1 4.2 04:33:48 10° N 04:37:53 27° NW 04:40:31 17° W
Cosmos 1271 Rocket 4.1 04:40:47 36° NW 04:40:47 36° NW 04:43:38 10° N
Helios 1A 3.5 04:42:08 56° NNE 04:42:08 56° NNE 04:45:36 10° N
NOSS 3-2 (C) 4.0 04:38:04 10° NW 04:45:47 88° NE 04:48:46 46° SE
Cosmos 1707 4.1 04:49:05 35° NW 04:49:05 35° NW 04:51:55 10° N
Cosmos 1553 Rocket 4.4 04:42:34 10° NNW 04:48:37 49° W 04:49:33 46° WSW
Meteor 2-5 Rocket 4.4 04:49:14 38° E 04:49:28 38° E 04:54:35 10° NNE
Helios 1B rocket 3.9 04:48:46 10° NNE 04:51:26 29° ENE 04:51:26 29° ENE
NOSS 3-4 (A) 3.2 04:52:00 71° SSW 04:52:43 89° SE 04:59:00 10° NE
NOSS 3-4 (C) 3.2 04:52:07 71° SSW 04:52:49 88° SE 04:59:07 10° NE
Cosmos 1503 Rocket 3.9 04:49:53 10° NNW 04:55:11 85° W 04:55:11 85° W
ATLAS 3B R/B 3.5 04:49:18 10° NNW 04:55:51 47° NE 05:00:19 21° ESE
Cosmos 1656 Rocket 3.6 04:55:34 67° WSW 04:56:08 74° WNW 05:01:45 10° NNE
Cosmos 1340 Rocket 3.7 04:52:33 10° N 04:55:32 48° NNW 04:55:32 48° NNW
CENTAUR R/B 3.1 04:49:32 10° NW 04:57:47 90° NNE 05:01:10 43° SSE
Cosmos 968 Rocket 3.8 04:53:06 10° NNW 04:57:43 54° W 04:57:43 54° W
Cosmos 1953 3.4 04:54:13 10° NNW 04:57:00 40° NW 04:57:00 40° NW
Cosmos 1674 4.0 05:02:07 37° NNE 05:02:07 37° NNE 05:04:32 10° NNE
Cosmos 1025 Rocket 4.4 05:02:18 30° WNW 05:02:18 30° WNW 05:05:46 10° NNW
PSLV R/B 4.5 04:59:18 10° NNE 05:03:00 42° ENE 05:03:00 42° ENE
In-Cosmos 22 4.1 05:04:34 67° W 05:04:46 67° WNW 05:10:02 10° N
Meteor 2-10 4.3 05:01:29 10° NNW 05:06:05 51° W 05:06:05 51° W
Cosmos 1833 4.1 05:04:28 10° NNW 05:10:05 70° WSW 05:10:06 70° WSW
Cosmos 1354 Rocket 4.0 05:06:13 10° NNW 05:11:18 68° W 05:11:18 68° W
Cosmos 1726 Rocket 4.1 05:09:44 10° N 05:13:26 53° NE 05:13:26 53° NE
Cosmos 1867 3.5 05:09:45 10° NNW 05:15:15 77° ENE 05:15:45 70° ESE
Cosmos 2266 Rocket 4.3 05:17:31 46° WSW 05:18:33 51° WNW 05:24:28 10° N
ATLAS 2AS CENTAUR R/B 3.3 05:17:31 34° WSW 05:21:15 65° NW 05:29:11 10° NNE
SL-4 R/B 2.6 05:22:07 64° NW 05:22:18 65° NNW 05:27:06 10° NE
Cosmos 2297 Rocket 4.4 05:19:52 10° N 05:24:00 20° NE 05:28:06 10° E
Meteor 1-16 Rocket 4.5 05:20:47 10° NNW 05:26:08 50° W 05:26:09 50° W
Meteor 2-14 Rocket 4.4 05:25:33 59° SE 05:26:28 68° E 05:32:33 10° NNE
COSMOS 2487 4.4 05:24:09 10° NNW 05:25:46 25° NNW 05:25:46 25° NNW
BREEZE-M R/B 3.9 05:30:04 44° E 05:30:04 44° E 05:32:37 10° ENE
Cosmos 1244 Rocket 4.4 05:27:54 62° SSE 05:28:56 76° E 05:35:07 10° N
COSMOS 2455 2.9 05:28:14 58° WSW 05:29:19 71° WNW 05:35:21 10° NNE
Timation 2 Rocket 4.5 05:23:13 10° NNW 05:29:25 54° ENE 05:32:00 33° ESE
Cosmos 2098 Rocket 4.3 05:29:07 53° SW 05:30:38 67° W 05:38:01 10° N
Cosmos 2228 3.6 05:27:22 10° NNW 05:30:44 52° NW 05:30:44 52° NW
Cosmos 1809 Rocket 4.3 05:31:04 66° SSW 05:32:00 88° W 05:38:14 10° N
SL-16 R/B 4.2 05:28:38 13° ESE 05:33:03 28° ENE 05:38:07 10° N
Cosmos 921 Rocket 3.7 05:37:25 47° ENE 05:37:25 47° ENE 05:40:55 10° NNE
SJ 16-02 4.0 05:35:02 10° NNE 05:37:31 15° ENE 05:39:59 10° E
CZ-4 R/B 3.9 05:34:50 10° N 05:39:33 65° WNW 05:39:33 65° WNW
Cosmos 2058 Rocket 3.2 05:39:20 10° N 05:43:24 73° NNE 05:43:24 73° NNE
ATLAS CENTAUR R/B 2.4 05:50:01 40° NW 05:50:07 40° NW 05:54:05 10° NNE
CZ-2D R/B 3.4 05:45:45 10° NE 05:50:11 27° E 05:51:15 25° ESE
Resurs 1-4 Rocket 3.3 05:47:56 10° NE 05:52:34 30° E 05:53:41 27° ESE
Cosmos 1626 Rocket 4.1 05:54:16 48° E 05:54:16 48° E 05:58:18 10° NNE
Cosmos 220 Rocket 4.2 05:55:59 65° ENE 05:55:59 65° ENE 06:00:01 10° NNE
Okean 1-7 Rocket 3.8 05:57:24 60° WNW 05:57:24 60° WNW 06:01:35 10° N
Cosmos 2227 Rocket 3.8 05:55:18 10° N 06:00:20 31° NE 06:05:20 10° ESE
RESURS DK-1 2.8 06:03:12 56° NW 06:03:12 56° NW 06:06:57 10° NNE
GEOS 3 Rocket 3.7 06:01:42 38° SE 06:03:43 74° NE 06:09:00 10° NNW
SL-08 R/B 4.4 06:02:41 56° SSW 06:04:08 82° W 06:10:31 10° N
Cosmos 1626 3.3 06:09:01 37° NW 06:09:01 37° NW 06:11:44 10° N
CZ-4C R/B 4.3 06:09:10 39° ESE 06:09:59 45° ENE 06:14:08 10° N
Meteor 1-24 Rocket 3.8 06:09:34 51° WSW 06:10:12 55° WNW 06:15:30 10° N
BREEZE M DEB (TANK) 4.3 06:12:50 25° NNE 06:13:04 25° NNE 06:16:04 10° E
Cosmos 1656 4.2 06:12:40 42° SE 06:13:49 48° ESE 06:19:13 10° NE
Cosmos 1300 3.5 06:10:04 10° NNW 06:12:54 44° NW 06:12:54 44° NW
STARLINK-1372 4.4 06:15:43 39° ENE 06:15:43 39° ENE 06:18:08 10° NE
SL-19 R/B 4.2 06:09:41 10° N 06:15:09 76° WNW 06:16:20 56° SW
Meteor 2-16 Rocket 4.4 06:14:46 53° SW 06:16:11 71° W 06:22:19 10° N
STARLINK-1378 4.3 06:18:13 42° ENE 06:18:13 42° ENE 06:20:45 10° NE
Cosmos 1356 Rocket 3.4 06:13:55 10° N 06:18:03 82° ENE 06:18:03 82° ENE
Cosmos 1812 Rocket 4.1 06:14:28 10° N 06:18:50 53° E 06:19:41 45° ESE
STARLINK-1329 4.2 06:20:03 45° ENE 06:20:03 45° ENE 06:22:41 10° NE
Cosmos 1386 Rocket 4.3 06:17:38 52° S 06:19:15 88° E 06:25:26 10° N
STARLINK-1379 4.2 06:20:45 45° ENE 06:20:45 45° ENE 06:23:23 10° NE
STARLINK-1365 4.0 06:22:15 50° ENE 06:22:15 50° ENE 06:25:01 10° NE
STARLINK-1362 4.0 06:22:39 49° ENE 06:22:39 49° ENE 06:25:23 10° NE
Cosmos 1709 Rocket 4.3 06:21:34 36° SSE 06:23:54 57° E 06:29:53 10° NNE
STARLINK-1373 3.9 06:24:57 52° ENE 06:24:57 52° ENE 06:27:47 10° NE
STARLINK-1320 4.5 06:27:13 34° NE 06:27:13 34° NE 06:29:09 10° NE
STARLINK-1322 4.4 06:27:32 35° NE 06:27:32 35° NE 06:29:30 10° NE
STARLINK-1390 3.8 06:27:13 55° NE 06:27:13 55° NE 06:30:08 10° NE
STARLINK-1324 4.4 06:27:52 35° NE 06:27:52 35° NE 06:29:50 10° NE
CZ-4C R/B 2.9 06:25:54 32° SE 06:26:44 34° ESE 06:31:41 10° NE
STARLINK-1294 4.4 06:28:09 36° NE 06:28:09 36° NE 06:30:10 10° NE
STARLINK-1261 4.4 06:28:31 36° NE 06:28:31 36° NE 06:30:31 10° NE
Helios 1B rocket 4.3 06:24:33 10° NNW 06:27:35 20° WNW 06:27:46 20° WNW
STARLINK-1325 4.4 06:28:50 36° NE 06:28:50 36° NE 06:30:51 10° NE
Cosmos 1602 Rocket 3.3 06:27:39 83° S 06:27:50 90° E 06:32:10 10° N
STARLINK-1333 4.4 06:29:11 36° NE 06:29:11 36° NE 06:31:12 10° NE
STARLINK-1334 4.4 06:29:29 37° NE 06:29:29 37° NE 06:31:32 10° NE
STARLINK-1326 4.4 06:29:49 37° NE 06:29:49 37° NE 06:31:52 10° NE
STARLINK-1323 4.3 06:30:08 37° NE 06:30:08 37° NE 06:32:12 10° NE
STARLINK-1349 4.3 06:30:28 37° NE 06:30:28 37° NE 06:32:33 10° NE
STARLINK-1336 4.3 06:30:48 38° NE 06:30:48 38° NE 06:32:53 10° NE
STARLINK-1331 4.3 06:31:08 38° NE 06:31:08 38° NE 06:33:14 10° NE
STARLINK-1344 4.3 06:31:27 38° NE 06:31:27 38° NE 06:33:35 10° NE
STARLINK-1343 4.3 06:31:46 38° NE 06:31:46 38° NE 06:33:54 10° NE
STARLINK-1346 4.2 06:32:03 40° NNE 06:32:03 40° NNE 06:34:15 10° NE
STARLINK-1328 4.2 06:32:25 39° NNE 06:32:25 39° NNE 06:34:33 10° NE
STARLINK-1354 4.2 06:32:44 39° NNE 06:32:44 39° NNE 06:34:54 10° NE
STARLINK-1347 4.2 06:33:04 39° NNE 06:33:04 39° NNE 06:35:14 10° NE
STARLINK-1357 4.2 06:33:23 40° NNE 06:33:23 40° NNE 06:35:34 10° NE
STARLINK-1335 4.2 06:33:45 40° NNE 06:33:45 40° NNE 06:35:57 10° NE
STARLINK-1327 4.2 06:34:03 40° NNE 06:34:03 40° NNE 06:36:15 10° NE
STARLINK-1340 4.2 06:34:22 41° NNE 06:34:22 41° NNE 06:36:36 10° NE
STARLINK-1356 4.2 06:34:41 41° NNE 06:34:41 41° NNE 06:36:55 10° NE
STARLINK-1345 4.1 06:35:01 41° NNE 06:35:01 41° NNE 06:37:16 10° NE
STARLINK-1355 4.1 06:35:20 41° NNE 06:35:20 41° NNE 06:37:35 10° NE
STARLINK-1321 4.1 06:35:41 41° NNE 06:35:41 41° NNE 06:37:57 10° NE
STARLINK-1358 4.1 06:36:00 41° NNE 06:36:00 41° NNE 06:38:16 10° NE
STARLINK-1332 4.1 06:36:21 42° NNE 06:36:21 42° NNE 06:38:39 10° NE
STARLINK-1348 4.1 06:36:39 42° NNE 06:36:39 42° NNE 06:38:57 10° NE
STARLINK-1330 4.1 06:36:58 42° NNE 06:36:58 42° NNE 06:39:16 10° NE
STARLINK-1363 4.1 06:37:19 42° NNE 06:37:19 42° NNE 06:39:39 10° NE
STARLINK-1337 4.0 06:37:38 43° NNE 06:37:38 43° NNE 06:39:58 10° NE
STARLINK-1342 4.0 06:37:56 43° NNE 06:37:56 43° NNE 06:40:16 10° NE
STARLINK-1364 4.0 06:38:16 43° NNE 06:38:16 43° NNE 06:40:38 10° NE
STARLINK-1376 4.0 06:38:36 43° NNE 06:38:36 43° NNE 06:40:58 10° NE
STARLINK-1360 4.0 06:38:56 43° NNE 06:38:56 43° NNE 06:41:19 10° NE
STARLINK-1361 4.0 06:39:15 43° NNE 06:39:15 43° NNE 06:41:38 10° NE
STARLINK-1367 4.0 06:39:31 45° NNE 06:39:31 45° NNE 06:41:59 10° NE
STARLINK-1366 4.0 06:39:55 44° NNE 06:39:55 44° NNE 06:42:20 10° NE
Meteor 1-21 Rocket 4.1 06:42:12 45° S 06:44:01 85° E 06:49:44 10° N
Cosmos 1763 Rocket 3.6 06:44:29 44° SSE 06:45:56 63° ESE 06:50:59 10° NNE
ATLAS 3B R/B 3.2 06:40:11 10° NW 06:46:27 39° WSW 06:47:30 36° SW
Nadezhda 1 Rocket 4.1 06:40:26 10° NNW 06:46:28 57° W 06:48:24 41° SW
IKONOS-2 4.4 06:46:23 58° SSE 06:47:13 90° ENE 06:51:32 10° NNW
CENTAUR R/B 4.3 06:41:42 10° WNW 06:47:50 23° WSW 06:48:17 23° WSW
IRS-1D 4.3 06:43:06 10° NNE 06:48:14 46° E 06:50:36 28° SSE
STARLINK-1210 4.5 06:44:43 10° NW 06:48:45 50° NNE 06:52:48 10° ESE
Lacrosse 4 Rocket 3.9 06:45:57 10° N 06:49:24 23° NE 06:52:47 10° ESE
GP-B 3.6 06:45:43 10° N 06:50:06 56° E 06:51:38 36° SSE
UNK 3.6 06:49:10 52° S 06:50:16 80° W 06:54:53 10° NNW
Cosmos 1980 Rocket 3.7 06:48:47 18° SSE 06:51:41 28° ESE 06:56:24 10° NE
STARLINK-1219 4.3 06:49:40 10° NW 06:53:44 54° NNE 06:57:49 10° ESE
Cosmos 1328 4.3 06:52:52 43° SE 06:53:46 53° E 06:57:40 10° NNE
Cosmos 1455 2.1 06:51:16 10° N 06:55:02 78° E 06:55:32 63° SE
Cosmos 2219 3.1 06:51:00 10° NNW 06:56:37 68° WSW 06:59:00 35° S
STARLINK-1211 4.2 06:54:38 10° NW 06:58:45 59° NNE 07:02:50 10° ESE
MOZ.5/SAFIR/RUBIN 5/SL-8 4.0 06:59:55 44° WSW 07:00:25 46° W 07:04:52 10° NNW
SL-4 R/B 4.3 06:58:35 10° WNW 07:02:43 27° NNW 07:06:45 10° NE
STARLINK-1245 4.0 06:59:36 10° NW 07:03:44 64° NE 07:07:50 10° ESE
ATLAS CENTAUR R/B 2.2 07:01:48 10° NW 07:04:55 81° NE 07:12:22 10° SE
Cosmos 1758 Rocket 3.5 07:05:35 51° SSW 07:06:35 73° W 07:10:58 10° N
Cosmos 2297 Rocket 2.1 07:02:57 10° NNW 07:08:35 68° WSW 07:11:45 26° S
STARLINK-1233 3.9 07:04:34 10° NW 07:08:42 69° NE 07:12:50 10° ESE
BREEZE-M DEB (TANK) 2.8 07:12:10 41° NNE 07:12:10 41° NNE 07:14:05 10° NE
STARLINK-1204 3.7 07:09:33 10° NW 07:13:42 75° NE 07:17:51 10° ESE
ARIANE 5 R/B 3.7 07:09:29 10° NNE 07:14:08 36° E 07:17:45 15° SSE
Cosmos 2082 4.0 07:08:38 10° NNW 07:14:17 69° ENE 07:19:52 10° SSE
BREEZE-M DEB (TANK) 3.8 07:12:54 30° S 07:14:48 45° SE 07:26:30 10° ENE
AQUA 3.8 07:10:04 10° N 07:14:49 69° WNW 07:16:34 38° SW
SL-16 R/B 2.7 07:13:43 31° SSW 07:16:19 50° W 07:22:18 10° NNW
SJ 16-02 1.4 07:12:08 10° NNW 07:16:29 58° WSW 07:17:48 40° SSW
Cosmos 2278 4.1 07:15:36 26° S 07:18:40 58° ESE 07:24:13 10° NNE
Cosmos 468 Rocket 4.2 07:16:46 34° SW 07:18:42 55° WNW 07:23:45 10° N
STARLINK-1238 3.6 07:14:32 10° NW 07:18:43 82° NE 07:22:50 10° SE
Cosmos 1898 Rocket 3.4 07:14:03 10° NNW 07:19:23 72° WSW 07:22:49 22° S
Cosmos 2184 Rocket 4.4 07:15:39 17° SSE 07:20:20 59° E 07:26:23 10° NNE
ADEOS II 2.2 07:15:50 10° NNE 07:21:05 72° ESE 07:24:11 25° S
Cosmos 1953 Rocket 3.5 07:21:24 35° S 07:23:17 89° WNW 07:27:45 10° N
STARLINK-1201 3.5 07:19:32 10° NW 07:23:41 89° NE 07:27:50 10° SE
Cosmos 1937 Rocket 3.4 07:20:49 10° NNW 07:26:05 87° WSW 07:31:08 11° SSE
IRS-P3 4.2 07:23:06 10° NNE 07:28:27 76° ESE 07:31:49 23° S
STARLINK-1206 3.5 07:24:30 10° NW 07:28:39 84° SW 07:32:48 10° SE
Cosmos 1570 Rocket 4.0 07:26:49 30° SSW 07:29:32 85° WNW 07:34:53 10° NNE
Cosmos 1703 3.7 07:29:00 38° WSW 07:30:01 47° W 07:33:52 10° N
CZ-2D R/B 2.9 07:25:30 10° N 07:30:17 37° WNW 07:32:35 25° WSW
Cosmos 1400 Rocket 3.3 07:26:50 10° N 07:30:56 61° E 07:34:35 13° SSE
Resurs 1-4 Rocket 3.0 07:27:36 10° N 07:32:22 35° WNW 07:34:47 24° WSW
Meteor 1-11 4.2 07:29:36 23° S 07:33:15 85° E 07:38:52 10° N
STARLINK-1205 3.5 07:29:29 10° NW 07:33:38 77° SW 07:37:46 10° SE
Cosmos 2181 Rocket 4.1 07:27:59 10° NNW 07:34:19 64° W 07:38:57 19° S
Cosmos 2208 Rocket 4.0 07:32:31 27° SSW 07:35:26 90° ESE 07:40:47 10° NNE
STARLINK-43 3.8 07:36:02 35° S 07:37:10 48° SE 07:40:44 10° ENE
STARLINK-1218 3.5 07:34:28 10° NW 07:38:35 70° SW 07:42:42 10° SE
Cosmos 1814 Rocket 4.0 07:38:34 25° SSW 07:41:50 89° WNW 07:47:12 10° NNE
Cosmos 1697 Rocket 2.9 07:38:46 26° SW 07:41:57 60° WNW 07:47:35 10° NNE
IDEFIX/ARIANE 42P 3.9 07:37:38 10° NNE 07:42:27 35° E 07:47:14 10° SSE
STARLINK-1254 3.5 07:39:27 10° WNW 07:43:33 64° SW 07:47:39 10° SE
Cosmos 2227 Rocket 2.7 07:39:12 10° NW 07:44:27 39° WSW 07:47:50 20° SSW
SL-08 R/B 3.2 07:41:20 10° SSE 07:46:03 89° ENE 07:50:43 10° NNW
BREEZE-M DEB (TANK) 4.0 07:45:52 10° NW 07:47:29 16° N 07:49:16 10° NE
STARLINK-1231 3.6 07:44:27 10° WNW 07:48:31 58° SW 07:52:34 10° SE
Cosmos 540 Rocket 3.5 07:46:55 24° SSW 07:50:02 69° WNW 07:55:10 10° NNE
BREEZE-M R/B 4.3 07:48:09 10° WNW 07:51:33 24° NNW 07:53:54 10° NE
SL-16 R/B 4.0 07:47:37 10° SSE 07:52:12 26° ESE 07:56:48 10° NE
Cosmos 2154 Rocket 4.3 07:46:29 10° S 07:52:42 69° E 07:58:55 10° NNE
STARLINK-1232 3.7 07:49:27 10° WNW 07:53:29 52° SW 07:57:30 10° SSE
Cosmos 1315 Rocket 4.3 07:50:07 10° N 07:53:47 37° ENE 07:57:25 10° SE
CZ-2D R/B 4.0 07:49:45 10° NNE 07:53:51 58° E 07:57:35 13° S
COBE Rocket 4.0 07:51:46 10° SSE 07:56:41 83° ENE 08:01:46 10° N
STARLINK-1208 3.8 07:54:28 10° WNW 07:58:27 47° SW 08:02:25 10° SSE
Iridium 2 3.6 07:55:06 10° N 07:58:53 87° E 08:02:25 11° S
ERS-2 2.1 07:55:48 10° SSE 07:59:26 83° ENE 08:03:07 10° NNW
BREEZE-M DEB (TANK) 1.0 08:01:12 10° WNW 08:03:23 88° NE 08:05:48 10° ESE
STARLINK-1271 3.9 07:59:28 10° WNW 08:03:24 43° SW 08:07:19 10° SSE
CZ-4C R/B 3.9 08:00:22 10° SSE 08:03:51 52° ENE 08:07:24 10° N
Cosmos 2285 Rocket 4.3 08:01:15 10° NNW 08:07:19 48° WSW 08:13:19 10° S
STARLINK-1154 4.0 08:04:28 10° WNW 08:08:20 39° SW 08:12:12 10° SSE
Cosmos 372 Rocket 3.9 08:04:14 10° NNW 08:09:22 81° WSW 08:14:31 10° SSE
Cosmos-2242 4.4 08:07:19 10° NW 08:10:28 20° W 08:12:04 17° WSW
Cosmos 841 Rocket 4.1 08:07:29 18° SW 08:11:04 42° WNW 08:16:03 10° N
Cosmos 2221 2.6 08:08:32 10° N 08:12:54 83° E 08:17:15 10° S
STARLINK-1197 4.1 08:09:29 10° WNW 08:13:18 35° SW 08:17:04 10° SSE
CZ-4C R/B 3.1 08:11:04 14° WSW 08:15:06 37° NW 08:20:36 10° NNE
STARLINK-42 3.9 08:13:40 17° SSW 08:15:43 37° SE 08:18:42 10° ENE
STARLINK-1236 4.3 08:11:38 10° NW 08:15:44 57° NNE 08:19:48 10° ESE
STARLINK-1198 4.3 08:14:34 10° WNW 08:18:17 32° SW 08:21:58 10° SSE
Uosat 12 SS-18 rocket 4.0 08:14:11 10° NW 08:18:30 74° WSW 08:23:09 10° SSE
STARLINK-1301 4.5 08:16:27 13° SSW 08:18:57 30° SE 08:22:00 10° ENE
STARLINK-1316 4.5 08:17:22 13° S 08:19:33 25° SE 08:22:12 10° ENE
STARLINK-1311 4.2 08:17:38 14° S 08:19:39 28° SE 08:22:16 10° ENE
STARLINK-1257 4.5 08:18:14 13° S 08:20:27 26° SE 08:23:08 10° ENE
STARLINK-1256 4.4 08:19:06 13° S 08:21:21 27° SE 08:24:02 10° ENE
IRIDIUM 106 4.3 08:16:39 10° S 08:21:52 78° W 08:27:06 10° N
STARLINK-1213 4.4 08:19:58 13° S 08:22:15 27° SE 08:24:57 10° ENE
Meteor 1-27 4.4 08:17:43 10° NNW 08:23:07 53° W 08:28:30 10° S
STARLINK-1263 4.4 08:20:50 13° S 08:23:08 28° SE 08:25:52 10° ENE
STARLINK-1199 4.4 08:19:35 10° WNW 08:23:12 29° SW 08:26:48 10° SSE
STARLINK-1259 4.3 08:21:43 12° SSW 08:24:04 28° SE 08:26:48 10° ENE
STARLINK 1040 2.8 08:22:42 18° WSW 08:24:25 52° NW 08:26:58 10° NE
STARLINK-1265 4.3 08:22:10 12° SSW 08:24:33 29° SE 08:27:19 10° ENE
STARLINK-1285 4.3 08:22:34 12° SSW 08:24:56 29° SE 08:27:41 10° ENE
USA 234 3.8 08:18:39 10° NE 08:25:00 51° SE 08:31:19 10° SSW
Cosmos 2058 3.0 08:20:57 10° S 08:25:07 79° E 08:29:20 10° N
STARLINK-1269 4.0 08:21:32 10° NW 08:25:41 67° NE 08:29:47 10° ESE
STARLINK-1297 4.4 08:23:33 12° SSW 08:26:18 31° SE 08:29:20 10° ENE
STARLINK-1268 4.2 08:24:01 12° SSW 08:26:25 30° SE 08:29:10 10° ENE
STARLINK-1296 4.2 08:24:20 12° SSW 08:26:45 30° SE 08:29:32 10° ENE
STARLINK-1260 4.2 08:25:11 12° SSW 08:27:39 31° SE 08:30:28 10° ENE
Lacrosse 4 Rocket 1.9 08:24:15 10° NW 08:28:12 37° WSW 08:32:03 10° S
Cosmos 2360 Rocket 4.4 08:24:03 10° SSE 08:28:13 22° E 08:32:24 10° NE
Nadezhda 3 Rocket 4.0 08:22:09 10° NNW 08:28:25 72° W 08:34:41 10° S
STARLINK-1318 4.2 08:26:04 12° SSW 08:28:33 31° SE 08:31:23 10° ENE
STARLINK-1275 4.1 08:26:53 12° SSW 08:29:25 32° SE 08:32:14 10° ENE
STARLINK-26 3.3 08:27:13 15° SW 08:30:00 67° SE 08:33:26 10° ENE
STARLINK-1309 4.1 08:27:47 12° SSW 08:30:20 33° SE 08:33:10 10° ENE
STARLINK-1200 3.9 08:26:32 10° NW 08:30:41 73° NE 08:34:49 10° ESE
STARLINK-1282 4.1 08:28:38 12° SSW 08:31:13 33° SE 08:34:04 10° ENE
Meteor 1-28 Rocket 3.8 08:27:46 10° SSW 08:31:18 38° W 08:34:51 10° NNW
STARLINK-1313 3.8 08:29:41 12° SSW 08:32:15 40° SE 08:35:12 10° ENE
STARLINK-55 3.0 08:29:57 14° SW 08:32:34 68° SE 08:35:45 10° ENE
STARLINK-1279 3.7 08:30:36 12° SSW 08:33:13 41° SE 08:36:11 10° ENE
MSX 4.1 08:27:58 10° NNE 08:33:44 72° ESE 08:39:27 10° S
STARLINK-1298 4.0 08:31:14 11° SSW 08:33:55 36° SE 08:36:48 10° ENE
STARLINK-1293 3.9 08:32:08 11° SSW 08:34:50 36° SE 08:37:45 10° ENE
Cosmos 1980 Rocket 2.8 08:30:34 12° SW 08:35:27 42° WNW 08:40:48 10° NNE
STARLINK-1192 3.8 08:31:31 10° NW 08:35:41 80° NE 08:39:49 10° SE
STARLINK-1255 3.9 08:33:49 11° SSW 08:36:35 38° SE 08:39:31 10° ENE
Cosmos 2084 Rocket 3.9 08:35:26 10° NNW 08:39:54 73° NE 08:44:24 10° SE
STARLINK-1244 3.7 08:36:29 10° NW 08:40:39 86° NNE 08:44:47 10° SE
Cosmos 1892 2.7 08:37:53 10° SSW 08:41:42 69° W 08:45:31 10° N
ERBS 3.2 08:38:32 10° NW 08:41:49 52° NE 08:45:06 10° ESE
Cosmos 2341 Rocket 4.1 08:35:48 10° S 08:42:11 89° W 08:48:35 10° N
CZ-4B R/B 2.8 08:39:34 10° SE 08:42:25 38° ENE 08:45:18 10° N
STARLINK-28 2.9 08:39:50 11° SW 08:42:50 86° NW 08:46:02 10° NE
STARLINK-1317 3.7 08:39:27 10° SW 08:42:50 52° SE 08:46:15 10° ENE
NOSS 2-1 (C) 3.5 08:39:35 10° SSW 08:42:56 53° ESE 08:46:20 10° NE
H-2A R/B 2.5 08:39:23 10° S 08:43:28 42° W 08:47:40 10° NNW
SL-4 R/B 4.5 08:39:32 10° NW 08:43:32 26° N 08:47:22 10° ENE
STARLINK-1138 3.6 08:41:27 10° NW 08:45:37 87° SW 08:49:44 10° SE
SAR-Lupe-4 3.7 08:42:36 10° SSE 08:46:10 79° ENE 08:49:46 10° N
deb Chang Zheng 4 3.8 08:42:52 10° NNE 08:47:11 72° ESE 08:51:27 10° S
NOSS 2-1 (D) 3.3 08:44:00 10° SSW 08:47:24 61° ESE 08:50:50 10° NE
STARLINK-41 2.9 08:44:31 10° SW 08:47:39 76° SE 08:50:48 10° NE
Cosmos 2150 Rocket 4.2 08:43:39 10° NNW 08:48:36 47° WSW 08:53:29 10° S
USA 129 2.2 08:48:46 10° NW 08:49:07 11° WNW 08:49:11 11° WNW
STARLINK-1291 3.4 08:46:39 10° SW 08:49:53 55° SE 08:53:08 10° ENE
STARLINK-1143 3.6 08:46:25 10° NW 08:50:34 80° SW 08:54:42 10° SE
STARLINK-1264 3.4 08:49:05 10° SW 08:52:20 59° SE 08:55:37 10° ENE
ARIANE 5 R/B 3.7 08:48:52 10° N 08:53:04 27° WNW 08:57:13 10° WSW
STARLINK-1267 3.3 08:50:50 10° SW 08:54:06 61° SE 08:57:24 10° ENE
STARLINK-1241 3.6 08:51:26 10° NW 08:55:34 73° SW 08:59:40 10° SE
STARLINK-1203 3.6 08:51:36 10° NW 08:55:47 72° SW 08:59:57 10° SE
